Home   Weather   Valletta   Past weeks

Flag for Malta Past Weather in Valletta, Malta — Yesterday and Last 2 Weeks

Now
70 °F

Passing clouds.


Feels Like: 70 °F
Forecast: 68 / 78 °F
Wind: 15 mph from East

Location: Luqa

Current Time: Sep 25, 2016 at 9:08:49 PM

Latest Report: Sep 25, 2016 at 8:45 PM


Visibility: N/A

Pressure: 29.95 "Hg

Humidity: 73%

Dew Point: 61 °F

Location of VallettaLocation

Past Weather in Valletta — Graph

°F

Valletta Temperature Yesterday

Maximum temperature yesterday: 79 °F (at 11:45 AM)
Minimum temperature yesterday: 68 °F (at 4:45 AM)
Average temperature yesterday: 73 °F

High & Low Weather Summary for the Past Weeks

 TemperatureHumidityPressure
High86 °F (Sep 13, 1:15 PM)94% (Sep 12, 4:45 AM)30.21 "Hg (Sep 12, 4:45 AM)
Low68 °F (Sep 23, 2:15 AM)38% (Sep 18, 4:45 PM)29.89 "Hg (Sep 18, 6:45 PM)
Average75 °F73%30.02 "Hg
* Reported Sep 10 7:15 PM — Sep 25 7:45 PM, Valletta, Weather by CustomWeather, © 2016

Note: Actual official high and low records may vary slightly from our data, if they occured in-between our weather recording intervals... More about our weather records

Advertising

Valletta Weather History for the Previous 24 Hours

Scroll right to see more
 ConditionsComfort  
Time TempWeatherWind HumidityBarometerVisibility
7:45 PM
Sun, Sep 25
70 °FPassing clouds.14 mph78%29.92 "HgN/A
7:15 PM70 °FPartly cloudy.17 mph78%29.92 "HgN/A
6:45 PM70 °FBroken clouds.18 mph83%29.92 "HgN/A
6:15 PM70 °FScattered clouds.15 mph78%29.92 "HgN/A
5:45 PM70 °FScattered clouds.15 mph78%29.95 "HgN/A
5:15 PM70 °FScattered clouds.15 mph83%29.95 "HgN/A
4:45 PM70 °FScattered clouds.14 mph88%29.95 "HgN/A
4:15 PM68 °FBroken clouds.13 mph94%29.95 "HgN/A
3:45 PM68 °FBroken clouds.8 mph88%29.95 "HgN/A
3:15 PM68 °FLight rain. Scattered clouds.10 mph88%29.95 "Hg5 mi
2:45 PM68 °FThunderstorms. Broken clouds.6 mph88%29.98 "Hg3 mi
2:15 PM68 °FThunderstorms. Broken clouds.5 mph88%29.98 "Hg3 mi
1:45 PM70 °FScattered clouds.2 mph88%29.98 "HgN/A
1:15 PM68 °FLight rain. Scattered clouds.3 mph88%29.98 "Hg5 mi
1:03 PM68 °FRain. Scattered clouds.3 mph88%29.98 "Hg4 mi
12:45 PM68 °FRain showers. Partly sunny.9 mph88%30.01 "Hg3 mi
12:15 PM73 °FLight rain. Scattered clouds.6 mph74%30.01 "HgN/A
11:45 AM75 °FLight rain. Scattered clouds.3 mph69%30.01 "HgN/A
11:15 AM75 °FLight rain. Scattered clouds.9 mph69%30.01 "HgN/A
10:45 AM75 °FLight rain. Scattered clouds.10 mph69%30.04 "HgN/A
10:15 AM75 °FScattered clouds.9 mph69%30.04 "HgN/A
9:45 AM75 °FScattered clouds.8 mph69%30.04 "HgN/A
9:15 AM75 °FPassing clouds.8 mph69%30.04 "HgN/A
8:45 AM73 °FPassing clouds.6 mph74%30.04 "HgN/A
8:15 AM72 °FPassing clouds.3 mph78%30.04 "HgN/A
7:45 AM70 °FPassing clouds.3 mph78%30.04 "HgN/A
7:15 AM68 °FPassing clouds.6 mph83%30.04 "HgN/A
6:45 AM68 °FPassing clouds.6 mph78%30.04 "HgN/A
6:15 AM68 °FPassing clouds.3 mph78%30.04 "HgN/A
5:45 AM68 °FPassing clouds.5 mph78%30.07 "HgN/A
5:15 AM68 °FPassing clouds.5 mph78%30.07 "HgN/A
4:45 AM68 °FClear.5 mph78%30.07 "Hg10 mi
4:15 AM68 °FClear.3 mph78%30.07 "Hg10 mi
4:04 AM68 °FClear.5 mph78%30.07 "Hg10 mi
3:45 AM68 °FClear.3 mph78%30.07 "Hg10 mi
3:15 AM68 °FClear.3 mph78%30.07 "Hg10 mi
2:45 AM68 °FClear.5 mph78%30.09 "Hg10 mi
2:15 AM68 °FClear.3 mph78%30.09 "Hg10 mi
1:45 AM68 °FClear.2 mph78%30.12 "Hg10 mi
1:15 AM68 °FPassing clouds.5 mph78%30.12 "HgN/A
12:45 AM68 °FClear.3 mph78%30.12 "Hg10 mi
12:15 AM68 °FClear.2 mph78%30.12 "Hg10 mi
11:45 PM
Sat, Sep 24
70 °FClear.2 mph73%30.15 "Hg10 mi
11:15 PM70 °FClear.1 mph73%30.15 "Hg10 mi
10:45 PM70 °FClear.3 mph69%30.15 "Hg10 mi
10:15 PM72 °FClear.2 mph69%30.15 "Hg10 mi
9:45 PM72 °FPassing clouds.2 mph69%30.15 "HgN/A
9:15 PM72 °FPassing clouds.5 mph73%30.15 "HgN/A
Weather by CustomWeather, © 2016

See weather overviewHow to use our weather pages